Location: Bailey Volunteer Fire Department
(33.4359°N, 96.1680°W)
Time: 15:48:05
(UTC+00:00)

Cosmos 44 - Pass Details

Date: 13 December 2025
Orbit: 572 x 778 km, 65.1° (Epoch: 14 January)

Event Time Altitude Azimuth Distance (km) Brightness Sun altitude
Rises 12:48:12 0° 224° (SW) 2,840 6.2 -6.9°
Reaches altitude 10° 12:50:29 10° 231° (SW) 1,967 5.4 -6.4°
Maximum altitude 12:54:42 42° 303° (WNW) 917 3.5 -5.6°
Drops below altitude 10° 12:59:11 10° 14° (NNE) 2,097 5.7 -4.8°
Sets 13:01:42 0° 21° (NNE) 3,052 6.6 -4.3°
